Aeroporto :
LOGIN :

Iscrizione | Disclaimer

   EN    FR    IT 

 










Sommario :    VFR   VFR Marginale   IFR   IFR Intensivo   IFR Molto Intensivo
Visibilità : 
Base nubi : 
>= 8 km
>= 3000ft
5 / 8 km
1000 / 3000 ft
1500m / 5 km
500 / 1000 ft
800 / 1500m
200 / 500 ft
< 800m
< 200 ft
Simboli :   Temporali  Nebbia  Neve Forte  Precipitazioni Forti  Vento > 20 kt
SIGMETs :   Varie  Temporali  Ghiacco  Turbolenza  Onda orograficha  Ceneri Vulcaniche







- Altitudine del aeroporto : 157 ft
- Codice IATA : LIL
- Carte del aeroporto


LFQQ - Lille Lesquin

ULTIMO METAR :
  • 231230Z AUTO 22006KT 180V270 CAVOK 22/08 Q1017 NOSIG

METARs OBSOLETI :
  • 231200Z AUTO 25006KT CAVOK 21/07 Q1018 NOSIG
  • 231130Z AUTO 24005KT 160V290 CAVOK 21/08 Q1018 NOSIG
  • 231100Z AUTO 25007KT 190V300 CAVOK 21/06 Q1018 NOSIG
  • 231030Z AUTO 23007KT 180V270 CAVOK 20/06 Q1018 NOSIG
  • 231000Z AUTO 24006KT 190V300 CAVOK 20/06 Q1018 NOSIG

TAF TAF LFQQ
Valido dal 23 a 12 ore il 24 a 18 ore UTC


231100Z 2312/2418 24005KT CAVOK
PROB30
TEMPO 2318/2322 SHRA SCT040TCU
BECMG 2411/2414 34010KT
ATIS : +33 3 20 16 19 54
Nessun NOTAM noto per questo aeroporto.



MetMap, La meteo Aeronautica in un colpo d'occhio ! - Copyright ORBIFLY Dicembre 2007 - Disclaimer

ORBIFLY MET'MAP TEAM :

Programmazione e sviluppo : Alexandra Zaïnal
Concezione e sviluppo : Baudouin d'Aumeries
Co-Programmazione e sviluppo : Marc-Olivier Méhu
Supporto tecnico e logistico : Manuel Goepfert
Aiuto per la traduzione : Arnaldo La Scala

Contatto : metmap@orbifly.com




FONTI E CREDITI :

   NOAA